Tracking 30298 objects as of 27-Apr-2025
HD Live streaming from Space Station
objects crossing your sky now

WESTFORD NEEDLES

Track WESTFORD NEEDLES now!
10-day predictions
WESTFORD NEEDLES is classified as:


NORAD ID: 19109
Int'l Code: 1963-014EJ
Perigee: 2,727.4 km
Apogee: 4,507.0 km
Inclination: 87.1 °
Period: 165.6 minutes
Semi major axis: 9988 km
RCS: 0.124 m2 (medium)
Launch date: May 9, 1963
Source: United States (US)
Launch site: AIR FORCE WESTERN TEST RANGE (AFWTR)
Your satellite tracking list
Your tracking list is empty




NASA's NSSDC Master Catalog

Two Line Element Set (TLE):
1 19109U 63014EJ  25111.43675975  .00000127  00000-0  37245-1 0  9992
2 19109  87.1360 115.1220 0890864 197.2078 159.6658  8.69700849421691
Source of the keplerian elements: AFSPC